Louisville Bowman, KY

8:09 PM EST on November 13, 2019 (GMT -0500)
Bowman

Weather History for KLOU - July, 2019

Change the Weather History Date:

Tuesday, July 23, 2019

  Actual Average Record
Temperature  
Mean Temperature 73 °F 78 °F  
Max Temperature 82 °F 87 °F 102 °F (1983)
Min Temperature 63 °F 68 °F 60 °F (2000)
Degree Days  
Heating Degree Days 0 0  
Month to date heating degree days 0 0  
Since 1 June heating degree days 5 3  
Since 1 July heating degree days 0 0  
Cooling Degree Days 8 13  
Month to date cooling degree days 376 299  
Year to date cooling degree days 846 751  
Since 1 June cooling degree days 650 604  
Growing Degree Days 22 (Base 50)    
Moisture  
Dew Point 56 °F    
Average Humidity 60    
Maximum Humidity 84    
Minimum Humidity 36    
Precipitation  
Precipitation 0.00 in 0.18 in 2.66 in (1957)
Month to date precipitation 1.92 3.09  
Year to date precipitation 39.08 27.15  
Snow  
Snow 0.00 in - - ()
Month to date snowfall  
Since 1 June snowfall  
Since 1 July snowfall  
Snow Depth -    
Sea Level Pressure  
Sea Level Pressure 30.03 in    
Wind  
Wind Speed 6 mph (North)    
Max Wind Speed 17 mph    
Max Gust Speed 26 mph    
Visibility 10 miles    
Events      
T = Trace of Precipitation, MM = Missing Value Source: NWS Daily Summary

Daily Weather History Graph

Daily Weather History Graph

Search for Another Location

Airport or City:

Astronomy

Jul. 23, 2019 Rise Set
Actual Time 6:37 AM EDT 9:00 PM EDT
Civil Twilight 6:07 AM EDT 9:30 PM EDT
Nautical Twilight 5:30 AM EDT 10:07 PM EDT
Astronomical Twilight 4:49 AM EDT 10:48 PM EDT
Moon 12:26 AM EDT (7/23) 12:45 PM EDT (7/23)
Length of Visible Light 15h 23m
Length of Day
14h 22m
Waning Gibbous, 63% of the Moon is Illuminated
Jul 23
Waning Gibbous
Jul 24
Last Quarter
Jul 31
New
Aug 7
First Quarter
Aug 15
Full

Hourly Weather History & Observations

Time (EDT) Temp. Heat Index Dew Point Humidity Pressure Visibility Wind Dir Wind Speed Gust Speed Precip Events Conditions
12:53 AM 69.1 °F - 63.0 °F 81% 30.00 in 10.0 mi NNW 3.5 mph - N/A   Scattered Clouds
1:53 AM 68.0 °F - 62.1 °F 81% 30.00 in 10.0 mi NNW 4.6 mph - N/A   Partly Cloudy
2:53 AM 66.9 °F - 59.0 °F 76% 29.99 in 10.0 mi North 6.9 mph - N/A   Clear
3:53 AM 66.0 °F - 57.9 °F 75% 29.99 in 10.0 mi North 5.8 mph - N/A   Clear
4:53 AM 64.0 °F - 57.0 °F 78% 30.00 in 10.0 mi North 4.6 mph - N/A   Clear
5:53 AM 64.0 °F - 57.0 °F 78% 30.00 in 10.0 mi North 4.6 mph - N/A   Partly Cloudy
6:53 AM 63.0 °F - 57.0 °F 81% 30.01 in 10.0 mi North 6.9 mph - N/A   Clear
7:53 AM 64.0 °F - 57.0 °F 78% 30.02 in 10.0 mi NNW 5.8 mph - N/A   Clear
8:53 AM 68.0 °F - 59.0 °F 73% 30.04 in 10.0 mi North 4.6 mph - N/A   Clear
9:53 AM 71.1 °F - 60.1 °F 68% 30.05 in 10.0 mi North 8.1 mph - N/A   Clear
10:53 AM 75.0 °F - 60.1 °F 60% 30.06 in 10.0 mi ENE 11.5 mph 16.1 mph N/A   Clear
11:53 AM 77.0 °F - 55.9 °F 48% 30.06 in 10.0 mi North 8.1 mph 18.4 mph N/A   Clear
12:53 PM 79.0 °F - 52.0 °F 39% 30.06 in 10.0 mi North 9.2 mph 24.2 mph N/A   Mostly Cloudy
1:53 PM 79.0 °F - 52.0 °F 39% 30.05 in 10.0 mi North 8.1 mph - N/A   Partly Cloudy
2:53 PM 81.0 °F - 52.0 °F 36% 30.04 in 10.0 mi NE 5.8 mph 17.3 mph N/A   Clear
3:53 PM 81.0 °F - 52.0 °F 36% 30.03 in 10.0 mi NNE 13.8 mph 21.9 mph N/A   Clear
4:53 PM 82.0 °F 81.3 °F 54.0 °F 38% 30.02 in 10.0 mi NNE 11.5 mph - N/A   Mostly Cloudy
5:53 PM 79.0 °F - 52.0 °F 39% 30.02 in 10.0 mi North 9.2 mph - N/A   Scattered Clouds
6:53 PM 80.1 °F - 52.0 °F 38% 30.01 in 10.0 mi North 10.4 mph - N/A   Scattered Clouds
7:53 PM 79.0 °F - 54.0 °F 42% 30.02 in 10.0 mi North 4.6 mph - N/A   Partly Cloudy
8:53 PM 75.9 °F - 53.1 °F 45% 30.03 in 10.0 mi Calm Calm - N/A   Clear
9:53 PM 72.0 °F - 55.0 °F 55% 30.04 in 10.0 mi WNW 3.5 mph - N/A   Clear
10:53 PM 69.1 °F - 57.0 °F 65% 30.05 in 10.0 mi Calm Calm - N/A   Clear
11:53 PM 66.9 °F - 57.9 °F 73% 30.05 in 10.0 mi Calm Calm - N/A   Clear